This is the latest recevied weather packets stored in our database for station/object W1BKW. If no packets are shown the sender has not sent any weather packets the latest 10 day(s).
| Time | Temp. | Humidity | Pressure | Rain* | Wind** | Luminosity | Snow |
|---|---|---|---|---|---|---|---|
| 1777888710 | 0.56° C | 99% | 1006.2 hPa | 0 mm | - | 4 W/m² | - |
| 1777887805 | 0° C | 99% | 1006.1 hPa | 0 mm | - | 1 W/m² | - |
| 1777886905 | -0.56° C | 99% | 1006.3 hPa | 0 mm | - | 0 W/m² | - |
| 1777886001 | -0.56° C | 99% | 1006.2 hPa | 0 mm | - | 0 W/m² | - |
| 1777885096 | -0.56° C | 99% | 1006.4 hPa | 0 mm | - | 0 W/m² | - |
| 1777884192 | -0.56° C | 99% | 1006.1 hPa | 0 mm | - | 0 W/m² | - |
| 1777883287 | -1.11° C | 99% | 1006.4 hPa | 0 mm | - | 0 W/m² | - |
| 1777882382 | -0.56° C | 99% | 1006.2 hPa | 0 mm | - | 0 W/m² | - |
| 1777881478 | -0.56° C | 99% | 1006.3 hPa | 0 mm | - | 0 W/m² | - |
| 1777880576 | -0.56° C | 99% | 1006.2 hPa | 0 mm | - | 0 W/m² | - |
| 1777879677 | -0.56° C | 99% | 1005.9 hPa | 0 mm | - | 0 W/m² | - |
| 1777878773 | -0.56° C | 97% | 1006.2 hPa | 0 mm | - | 0 W/m² | - |
| 1777877869 | -0.56° C | 97% | 1006.1 hPa | 0 mm | - | 0 W/m² | - |
| 1777876965 | -0.56° C | 98% | 1005.9 hPa | 0 mm | - | 0 W/m² | - |
| 1777876062 | 0° C | 97% | 1006 hPa | 0 mm | - | 0 W/m² | - |
| 1777875157 | 0° C | 96% | 1005.9 hPa | 0 mm | - | 0 W/m² | - |
| 1777874253 | 0° C | 95% | 1005.8 hPa | 0 mm | - | 0 W/m² | - |
| 1777873350 | 0.56° C | 94% | 1005.6 hPa | 0 mm | - | 0 W/m² | - |
| 1777872446 | 0.56° C | 90% | 1005.6 hPa | 0 mm | - | 0 W/m² | - |
| 1777871543 | 0.56° C | 89% | 1005.7 hPa | 0 mm | - | 0 W/m² | - |
| 1777870641 | 1.11° C | 89% | 1005.7 hPa | 0 mm | - | 0 W/m² | - |
| 1777869736 | 1.11° C | 87% | 1005.6 hPa | 0 mm | - | 0 W/m² | - |
| 1777868834 | 1.11° C | 86% | 1005.8 hPa | 0 mm | - | 0 W/m² | - |
| 1777867934 | 1.67° C | 85% | 1005.7 hPa | 0 mm | - | 0 W/m² | - |
| 1777867030 | 2.22° C | 84% | 1005.7 hPa | 0 mm | - | 0 W/m² | - |
* Rain latest hour (hover to see other rain measurements)
** Current wind speed in m/s (hover to see current wind gust speed)